カタログに戻る

NOAA 16 DEB

運用中PO
NORAD 41500·DEBRIS·🇺🇸 United States

打ち上げ Sep 21, 2000 から Vandenberg Space Force Base

Loading…

次のパス (今後24時間)

TLE

最新Source: Space-Track

元期: Sep 14, 2026, 11:26 UTC

1 41500U 00055LY  26257.47706926  .00004381  00000-0  10402-2 0  9998
2 41500  98.9985 141.1939 0025349 235.4156 124.4646 14.54301194548609

AllMySatでNOAA 16 DEBをリアルタイム追跡

Download on the App Store